DW7346 Weather Reports


Display with metric or nautical units.
time (UTC)temp
F
wind
direction
speed
MPH
gust
MPH
rain 1hr
in
rain 24hr
in
rain mn
in
humidity
%
barometer
mb
20260901154552 90 243 1.0 7.0 0.00 0.00 0.00 64 1014.3
20260901153051 89 193 3.0 7.0 0.00 0.00 0.00 64 1014.2
20260901151548 88 188 1.0 5.0 0.00 0.00 0.00 65 1014.1
20260901150046 88 214 2.0 5.0 0.00 0.00 0.00 66 1014.2
20260901144541 87 155 0.0 3.0 0.00 0.00 0.00 69 1014.3
20260901143039 87 203 1.0 3.0 0.00 0.00 0.00 68 1014.3
20260901141537 85 232 1.0 3.0 0.00 0.00 0.00 71 1014.4
20260901140036 84 188 0.0 3.0 0.00 0.00 0.00 73 1014.5
20260901134550 83 108 0.0 3.0 0.00 0.00 0.00 75 1014.5
20260901133031 82 69 0.0 3.0 0.00 0.00 0.00 77 1014.3
20260901131529 80 120 0.0 2.0 0.00 0.00 0.00 79 1014.3
20260901130030 79 177 0.0 1.0 0.00 0.00 0.00 80 1014.1
20260901124527 79 177 0.0 0.0 0.00 0.00 0.00 79 1013.9
20260901123023 79 177 0.0 0.0 0.00 0.00 0.00 78 1013.7
20260901121521 79 177 0.0 0.0 0.00 0.00 0.00 78 1013.5
20260901120019 79 177 0.0 0.0 0.00 0.00 0.00 77 1013.4
20260901114518 80 177 0.0 0.0 0.00 0.00 0.00 77 1013.4
20260901113018 80 180 0.0 0.0 0.00 0.00 0.00 76 1013.3
20260901111511 81 179 0.0 0.0 0.00 0.00 0.00 75 1013.1
20260901110009 82 179 0.0 3.0 0.00 0.00 0.00 73 1012.9
20260901104506 82 179 0.0 2.0 0.00 0.00 0.00 73 1012.9
20260901103005 82 217 1.0 5.0 0.00 0.00 0.00 72 1012.8
20260901101504 83 207 2.0 5.0 0.00 0.00 0.00 71 1012.8
20260901100007 83 200 1.0 3.0 0.00 0.00 0.00 71 1012.8
20260901094503 83 187 1.0 4.0 0.00 0.00 0.00 70 1012.9
20260901093005 84 219 1.0 5.0 0.00 0.00 0.00 69 1013.0
20260901091501 84 229 1.0 5.0 0.00 0.00 0.00 68 1013.1
20260901084600 84 134 1.0 4.0 0.00 0.00 0.00 67 1013.0
20260901083057 84 184 0.0 3.0 0.00 0.00 0.00 65 1013.0
20260901081605 84 126 0.0 1.0 0.00 0.00 0.00 65 1012.8
20260901080055 84 104 0.0 2.0 0.00 0.00 0.00 64 1012.7
20260901074554 85 130 0.0 3.0 0.00 0.00 0.00 63 1012.7
20260901073100 85 112 0.0 3.0 0.00 0.00 0.00 62 1012.7
20260901071553 85 99 1.0 4.0 0.00 0.00 0.00 61 1012.7
20260901070058 85 108 1.0 5.0 0.00 0.00 0.00 60 1012.6
20260901064547 85 120 1.0 6.0 0.00 0.00 0.00 60 1012.5
20260901063048 85 117 0.0 4.0 0.00 0.00 0.00 60 1012.4
20260901061543 84 79 0.0 3.0 0.00 0.00 0.00 59 1012.4
20260901060045 84 68 0.0 1.0 0.00 0.00 0.00 58 1012.2
20260901054538 84 68 0.0 3.0 0.00 0.00 0.00 58 1012.0
20260901053100 83 113 0.0 0.0 0.00 0.00 0.00 59 1011.8
20260901051533 83 113 0.0 1.0 0.00 0.00 0.00 60 1011.7
20260901050030 83 113 0.0 1.0 0.00 0.00 0.00 60 1011.6
20260901044536 83 113 0.0 1.0 0.00 0.00 0.00 60 1011.4
20260901043037 84 113 0.0 1.0 0.00 0.00 0.00 58 1011.5
20260901041530 86 113 0.0 2.0 0.00 0.00 0.00 58 1011.5
20260901040028 86 115 0.0 1.0 0.00 0.00 0.00 53 1011.5
20260901034531 86 115 0.0 1.0 0.00 0.00 0.00 52 1011.5
20260901033039 86 115 0.0 0.0 0.00 0.00 0.00 51 1011.4
20260901031529 87 115 0.0 2.0 0.00 0.00 0.00 50 1011.4
20260901030026 88 115 0.0 1.0 0.00 0.00 0.00 49 1011.4
20260901024527 88 115 0.0 2.0 0.00 0.00 0.00 47 1011.2
20260901023025 89 115 0.0 1.0 0.00 0.00 0.00 47 1010.9
20260901021533 90 115 0.0 2.0 0.00 0.00 0.00 45 1010.7
20260901020044 91 115 0.0 2.0 0.00 0.00 0.00 44 1010.6
20260901014522 92 115 0.0 2.0 0.00 0.00 0.00 44 1010.4
20260901013023 93 114 0.0 3.0 0.00 0.00 0.00 43 1010.4
20260901011533 93 114 0.0 3.0 0.00 0.00 0.00 42 1010.2
20260901010021 95 113 0.0 3.0 0.00 0.00 0.00 41 1010.2
20260901004522 96 98 1.0 3.0 0.00 0.00 0.00 40 1010.2
20260901003020 97 119 0.0 2.0 0.00 0.00 0.00 39 1010.2
20260901001525 98 231 0.0 4.0 0.00 0.00 0.00 38 1010.1
20260901000019 99 121 1.0 5.0 0.00 0.00 0.00 37 1010.1
20260831234518 99 139 1.0 5.0 0.00 0.00 0.00 37 1010.2
20260831233033 100 137 1.0 7.0 0.00 0.00 0.00 38 1010.2
20260831231517 100 131 1.0 10.0 0.00 0.00 0.00 37 1010.2
20260831230015 100 108 3.0 9.0 0.00 0.00 0.00 36 1010.2
20260831224516 101 107 2.0 7.0 0.00 0.00 0.00 38 1010.3
20260831223013 101 134 2.0 8.0 0.00 0.00 0.00 38 1010.5
20260831221512 100 83 2.0 9.0 0.00 0.00 0.00 38 1010.5
20260831220010 101 223 1.0 8.0 0.00 0.00 0.00 39 1010.6
20260831214514 101 122 2.0 6.0 0.00 0.00 0.00 37 1010.7
20260831213009 99 250 1.0 8.0 0.00 0.00 0.00 39 1010.8
20260831211506 98 116 3.0 7.0 0.00 0.00 0.00 40 1010.9
20260831210005 98 193 2.0 7.0 0.00 0.00 0.00 40 1011.1
20260831204510 100 87 1.0 9.0 0.00 0.00 0.00 39 1011.4
20260831203004 100 117 3.0 12.0 0.00 0.00 0.00 39 1011.6
20260831201601 100 69 2.0 8.0 0.00 0.00 0.00 40 1011.7
20260831200058 97 98 1.0 7.0 0.00 0.00 0.00 43 1011.9
20260831194632 98 123 4.0 9.0 0.00 0.00 0.00 41 1012.1
20260831193056 99 266 1.0 8.0 0.00 0.00 0.00 42 1012.3
20260831191555 97 226 2.0 6.0 0.00 0.00 0.00 41 1012.4
20260831184612 98 124 0.0 8.0 0.00 0.00 0.00 43 1012.7
20260831183101 97 212 2.0 9.0 0.00 0.00 0.00 46 1012.8
20260831181550 98 212 1.0 5.0 0.00 0.00 0.00 46 1013.2
20260831180048 98 142 2.0 7.0 0.00 0.00 0.00 48 1013.5
20260831174549 97 219 1.0 7.0 0.00 0.00 0.00 49 1013.7
20260831173054 96 122 2.0 9.0 0.00 0.00 0.00 48 1013.9
20260831171537 96 205 1.0 8.0 0.00 0.00 0.00 50 1014.1
20260831170034 94 137 3.0 8.0 0.00 0.00 0.00 48 1014.2
20260831164534 94 196 2.0 5.0 0.00 0.00 0.00 50 1014.1
20260831163027 93 250 2.0 5.0 0.00 0.00 0.00 51 1014.2
20260831161523 92 212 1.0 8.0 0.00 0.00 0.00 54 1014.3